Location: *
(45.8589°N, 4.7139°E)
Time: 11:34:12
(UTC+00:00)

STARLINK-1269 - Pass Details

Date: 09 April 2020
Orbit: 548 x 551 km, 53.0° (Epoch: 06 June)

Event Time Altitude Azimuth Distance (km) Brightness Sun altitude
Rises 19:38:35 0° 300° (WNW) 2,726 9.2 -13.6°
Reaches altitude 10° 19:40:53 10° 306° (NW) 1,830 7.7 -13.9°
Maximum altitude 19:44:56 49° 22° (NNE) 714 4.2 -14.6°
Enters shadow 19:47:15 23° 88° (E) 1,204 4.8 -14.9°
